WB6TTB Weather Reports


time (UTC)temp
C
wind
direction
speed
KPH
gust
KPH
rain 1hr
cm
rain 24hr
cm
rain mn
cm
humidity
%
barometer
mb
20260504010004 13 256 0.0 1.6 0.00 0.00 0.00 85 1012.5
20260504004803 13 277 0.0 1.6 0.00 0.00 0.00 86 1012.5
20260504004204 13 267 0.0 1.6 0.00 0.00 0.00 85 1012.5
20260504003604 13 294 0.0 1.6 0.00 0.00 0.00 85 1012.3
20260504003004 13 290 0.0 4.8 0.00 0.00 0.00 85 1012.2
20260504001803 13 291 0.0 1.6 0.00 0.00 0.00 84 1012.1
20260504001203 13 288 0.0 1.6 0.00 0.00 0.00 84 1012.0
20260504000603 13 281 0.0 1.6 0.00 0.00 0.00 85 1012.0
20260504000004 13 306 0.0 3.2 0.00 0.00 0.00 84 1012.0
20260503235403 13 291 0.0 4.8 0.00 0.00 0.00 84 1012.0
20260503234803 13 292 0.0 4.8 0.00 0.00 0.00 84 1011.9
20260503233603 13 274 0.0 1.6 0.00 0.00 0.00 82 1012.0
20260503232403 13 283 0.0 4.8 0.00 0.00 0.00 82 1012.1
20260503231803 13 288 0.0 3.2 0.00 0.00 0.00 81 1012.0
20260503231203 13 302 0.0 3.2 0.00 0.00 0.00 81 1011.9
20260503230003 13 297 0.0 4.8 0.00 0.00 0.00 80 1012.0
20260503225404 13 297 0.0 4.8 0.00 0.00 0.00 82 1011.9
20260503224804 14 308 0.0 1.6 0.00 0.00 0.00 81 1012.0
20260503224204 14 0 0.0 0.0 0.00 0.00 0.00 82 1012.0
20260503223604 14 0 0.0 0.0 0.00 0.00 0.00 82 1012.1
20260503223004 14 306 0.0 1.6 0.00 0.00 0.00 82 1012.2
20260503221804 14 302 0.0 1.6 0.00 0.00 0.00 80 1012.3
20260503221204 15 292 0.0 1.6 0.00 0.00 0.00 80 1012.2
20260503220603 15 292 0.0 1.6 0.00 0.00 0.00 80 1012.3
20260503220004 15 0 0.0 0.0 0.00 0.00 0.00 80 1012.3
20260503215403 15 274 0.0 1.6 0.00 0.00 0.00 79 1012.2
20260503214803 15 296 0.0 4.8 0.00 0.00 0.00 77 1012.2
20260503214203 15 298 0.0 4.8 0.00 0.00 0.00 78 1012.0
20260503213603 15 297 0.0 4.8 0.00 0.00 0.00 78 1012.1
20260503213003 15 289 0.0 3.2 0.00 0.00 0.00 77 1012.1
20260503212403 15 283 0.0 4.8 0.00 0.00 0.00 76 1012.1
20260503211803 15 292 0.0 1.6 0.00 0.00 0.00 78 1012.1
20260503211203 15 294 0.0 1.6 0.00 0.00 0.00 79 1012.2
20260503210603 15 293 0.0 3.2 0.00 0.00 0.00 79 1012.3
20260503210003 15 287 0.0 3.2 0.00 0.00 0.00 77 1012.3
20260503204803 15 295 0.0 1.6 0.00 0.00 0.00 79 1012.2
20260503204203 15 289 0.0 1.6 0.00 0.00 0.00 79 1012.2
20260503203603 15 288 0.0 1.6 0.00 0.00 0.00 80 1012.2
20260503202404 15 0 0.0 1.6 0.00 0.00 0.00 80 1012.2
20260503131204 11 0 0.0 0.0 0.00 0.00 0.00 90 1010.1
20260503110603 11 0 0.0 0.0 0.00 0.00 0.00 92 1010.1
20260503081204 11 0 0.0 0.0 0.00 0.00 0.00 92 1010.9
20260503072403 11 0 0.0 0.0 0.00 0.00 0.00 92 1010.9
20260503071803 11 0 0.0 0.0 0.00 0.00 0.00 92 1010.9
20260503053004 11 0 0.0 0.0 0.00 0.00 0.00 91 1011.4
20260503052403 11 0 0.0 0.0 0.00 0.00 0.00 91 1011.4
20260503051203 11 0 0.0 0.0 0.00 0.00 0.00 91 1011.4
20260503050604 11 0 0.0 0.0 0.00 0.00 0.00 91 1011.5
20260503050003 11 0 0.0 0.0 0.00 0.00 0.00 91 1011.4
20260503045403 11 0 0.0 0.0 0.00 0.00 0.00 91 1011.4
20260503044803 11 0 0.0 0.0 0.00 0.00 0.00 91 1011.4
20260503044203 11 0 0.0 0.0 0.00 0.00 0.00 92 1011.3
20260503043603 11 0 0.0 0.0 0.00 0.00 0.00 91 1011.3
20260503043003 11 0 0.0 0.0 0.00 0.00 0.00 91 1011.3
20260503041203 11 0 0.0 0.0 0.00 0.00 0.00 91 1011.2
20260503040603 11 0 0.0 0.0 0.00 0.00 0.00 91 1011.2
20260503034804 11 0 0.0 0.0 0.00 0.00 0.00 91 1011.1
20260503034204 11 0 0.0 0.0 0.00 0.00 0.00 91 1011.0
20260503033004 11 0 0.0 0.0 0.00 0.00 0.00 91 1010.8
20260503032404 11 0 0.0 0.0 0.00 0.00 0.00 91 1010.7
20260503031804 11 0 0.0 0.0 0.00 0.00 0.00 91 1010.6
20260503031204 11 0 0.0 0.0 0.00 0.00 0.00 91 1010.5
20260503030004 11 0 0.0 0.0 0.00 0.00 0.00 91 1010.4
20260503025403 11 0 0.0 0.0 0.00 0.00 0.00 91 1010.4
20260503024803 11 0 0.0 0.0 0.00 0.00 0.00 91 1010.4
20260503024203 11 284 0.0 1.6 0.00 0.00 0.00 91 1010.5
20260503023603 11 284 0.0 1.6 0.00 0.00 0.00 91 1010.5
20260503023003 11 0 0.0 0.0 0.00 0.00 0.00 90 1010.5
20260503022403 11 0 0.0 0.0 0.00 0.00 0.00 90 1010.4
20260503021803 11 0 0.0 0.0 0.00 0.00 0.00 90 1010.5
20260503020603 11 290 0.0 1.6 0.00 0.00 0.00 90 1010.5
20260503015403 11 0 0.0 1.6 0.00 0.00 0.00 89 1010.5
20260503014803 12 289 0.0 1.6 0.00 0.00 0.00 88 1010.6
20260503014204 12 287 0.0 1.6 0.00 0.00 0.00 88 1010.6
20260503013604 12 292 0.0 1.6 0.00 0.00 0.00 89 1010.6
20260503013004 12 292 0.0 1.6 0.00 0.00 0.00 88 1010.6
20260503012403 12 289 0.0 1.6 0.00 0.00 0.00 88 1010.7
20260503011804 12 286 0.0 1.6 0.00 0.00 0.00 88 1010.8
20260503011204 12 289 0.0 1.6 0.00 0.00 0.00 87 1010.7
20260503010603 12 282 0.0 3.2 0.00 0.00 0.00 87 1010.7